DOC524 LPPD-LPLA

Flight info

Callsign DOC524
Flight time 0h 27m
Altitude 16000
Route MIPRU H113 LM
Aircraft B350/L-SDFGIRXYZ/LB1

Departure

Time 2026-04-27 20:26
Airport João Paulo II Airport (LPPD)

Arrival

Time 2026-04-27 20:53
Airport Lajes Airport (LPLA)
Time Latitude Longitude Altitude Speed Heading
2026-04-27 19:52 37.74328 -25.69615 266 ft 0 kts 21°
2026-04-27 20:21 37.74336 -25.69633 266 ft 8 kts 252°
2026-04-27 20:21 37.74313 -25.69703 266 ft 11 kts 231°
2026-04-27 20:21 37.74249 -25.69744 262 ft 11 kts 202°
2026-04-27 20:22 37.74221 -25.69827 262 ft 12 kts 285°
2026-04-27 20:22 37.74253 -25.69931 263 ft 13 kts 291°
2026-04-27 20:22 37.74286 -25.70035 264 ft 13 kts 291°
2026-04-27 20:22 37.74322 -25.70155 265 ft 15 kts 291°
2026-04-27 20:23 37.74362 -25.70279 265 ft 15 kts 291°
2026-04-27 20:23 37.74400 -25.70398 267 ft 14 kts 291°
2026-04-27 20:23 37.74436 -25.70515 267 ft 15 kts 291°
2026-04-27 20:23 37.74476 -25.70643 266 ft 16 kts 292°
2026-04-27 20:24 37.74520 -25.70779 266 ft 17 kts 292°
2026-04-27 20:24 37.74563 -25.70915 264 ft 15 kts 291°
2026-04-27 20:24 37.74602 -25.70987 264 ft 6 kts 261°
2026-04-27 20:24 37.74585 -25.70982 264 ft 0 kts 111°
2026-04-27 20:26 37.74503 -25.70724 266 ft 72 kts 111°
2026-04-27 20:26 37.74244 -25.69898 290 ft 124 kts 113°
2026-04-27 20:26 37.73892 -25.68796 634 ft 144 kts 113°
2026-04-27 20:26 37.73536 -25.67585 1212 ft 150 kts 114°
2026-04-27 20:27 37.73175 -25.66320 1779 ft 155 kts 117°
2026-04-27 20:27 37.72761 -25.64995 2194 ft 169 kts 118°
2026-04-27 20:27 37.72310 -25.63556 2582 ft 181 kts 118°
2026-04-27 20:27 37.71564 -25.62340 3043 ft 174 kts 156°
2026-04-27 20:28 37.70416 -25.62055 3509 ft 171 kts 195°
2026-04-27 20:28 37.69565 -25.63051 3989 ft 180 kts 248°
2026-04-27 20:28 37.69702 -25.64636 4485 ft 194 kts 286°
2026-04-27 20:28 37.70078 -25.65683 4909 ft 191 kts 289°
2026-04-27 20:29 37.70869 -25.67643 5675 ft 189 kts 292°
2026-04-27 20:29 37.71602 -25.69046 6215 ft 195 kts 306°
2026-04-27 20:29 37.72558 -25.70277 6741 ft 197 kts 310°
2026-04-27 20:29 37.73544 -25.71491 7267 ft 198 kts 310°
2026-04-27 20:30 37.74522 -25.72716 7793 ft 198 kts 309°
2026-04-27 20:30 37.75498 -25.73951 8328 ft 199 kts 309°
2026-04-27 20:30 37.76467 -25.75194 8875 ft 199 kts 308°
2026-04-27 20:30 37.77423 -25.76430 9435 ft 199 kts 309°
2026-04-27 20:31 37.78393 -25.77685 10011 ft 199 kts 310°
2026-04-27 20:31 37.79362 -25.78949 10509 ft 201 kts 310°
2026-04-27 20:31 37.80339 -25.80220 11003 ft 202 kts 310°
2026-04-27 20:31 37.81323 -25.81504 11502 ft 204 kts 309°
2026-04-27 20:32 37.82318 -25.82802 12011 ft 206 kts 310°
2026-04-27 20:32 37.83324 -25.84107 12521 ft 208 kts 310°
2026-04-27 20:32 37.84326 -25.85410 13018 ft 210 kts 310°
2026-04-27 20:32 37.85349 -25.86740 13514 ft 212 kts 310°
2026-04-27 20:33 37.86378 -25.88084 14028 ft 213 kts 310°
2026-04-27 20:33 37.87417 -25.89437 14511 ft 214 kts 310°
2026-04-27 20:33 37.88460 -25.90798 14999 ft 215 kts 310°
2026-04-27 20:33 37.89503 -25.92165 15455 ft 217 kts 310°
2026-04-27 20:34 37.90556 -25.93540 15804 ft 224 kts 310°
2026-04-27 20:34 37.91666 -25.94989 16029 ft 235 kts 310°
2026-04-27 20:34 37.92838 -25.96522 16125 ft 249 kts 311°
2026-04-27 20:34 37.94082 -25.98146 16138 ft 263 kts 311°
2026-04-27 20:35 37.95383 -25.99838 16145 ft 273 kts 311°
2026-04-27 20:35 37.96727 -26.01585 16144 ft 280 kts 311°
2026-04-27 20:35 37.98082 -26.03349 16143 ft 285 kts 311°
2026-04-27 20:35 37.99476 -26.05170 16144 ft 289 kts 311°
2026-04-27 20:36 38.00881 -26.07018 16142 ft 292 kts 311°
2026-04-27 20:36 38.02301 -26.08885 16144 ft 294 kts 311°
2026-04-27 20:36 38.03711 -26.10736 16141 ft 296 kts 311°
2026-04-27 20:36 38.05148 -26.12622 16140 ft 297 kts 311°
2026-04-27 20:37 38.06585 -26.14514 16135 ft 298 kts 311°
2026-04-27 20:37 38.08026 -26.16411 16139 ft 299 kts 311°
2026-04-27 20:37 38.09466 -26.18314 16139 ft 299 kts 311°
2026-04-27 20:37 38.10916 -26.20221 16135 ft 300 kts 311°
2026-04-27 20:38 38.12367 -26.22132 16135 ft 300 kts 311°
2026-04-27 20:38 38.13797 -26.24018 16137 ft 300 kts 310°
2026-04-27 20:38 38.15251 -26.25935 16136 ft 301 kts 311°
2026-04-27 20:38 38.16705 -26.27854 16134 ft 301 kts 311°
2026-04-27 20:39 38.18154 -26.29776 16134 ft 301 kts 310°
2026-04-27 20:39 38.19608 -26.31695 16136 ft 301 kts 311°
2026-04-27 20:39 38.21062 -26.33616 16134 ft 301 kts 311°
2026-04-27 20:39 38.22516 -26.35541 16134 ft 302 kts 310°
2026-04-27 20:40 38.23969 -26.37468 16133 ft 302 kts 311°
2026-04-27 20:40 38.25405 -26.39374 16133 ft 302 kts 311°
2026-04-27 20:40 38.26868 -26.41311 15980 ft 307 kts 310°
2026-04-27 20:40 38.28390 -26.43308 15540 ft 319 kts 311°
2026-04-27 20:41 38.29973 -26.45357 15093 ft 326 kts 311°
2026-04-27 20:41 38.31554 -26.47439 14667 ft 327 kts 311°
2026-04-27 20:41 38.33127 -26.49540 14242 ft 326 kts 311°
2026-04-27 20:41 38.34665 -26.51608 13817 ft 325 kts 311°
2026-04-27 20:42 38.36211 -26.53681 13344 ft 320 kts 311°
2026-04-27 20:42 38.37735 -26.55724 12880 ft 316 kts 311°
2026-04-27 20:42 38.39243 -26.57744 12422 ft 313 kts 311°
2026-04-27 20:42 38.40743 -26.59749 11965 ft 310 kts 311°
2026-04-27 20:43 38.42231 -26.61739 11524 ft 308 kts 311°
2026-04-27 20:43 38.43686 -26.63692 11097 ft 306 kts 310°
2026-04-27 20:43 38.45152 -26.65657 10650 ft 305 kts 311°
2026-04-27 20:43 38.46610 -26.67611 10233 ft 303 kts 310°
2026-04-27 20:44 38.48061 -26.69556 9789 ft 301 kts 310°
2026-04-27 20:44 38.49508 -26.71489 9319 ft 300 kts 310°
2026-04-27 20:44 38.50946 -26.73416 8859 ft 299 kts 310°
2026-04-27 20:44 38.52376 -26.75337 8406 ft 298 kts 310°
2026-04-27 20:45 38.53784 -26.77225 7969 ft 297 kts 310°
2026-04-27 20:45 38.55203 -26.79130 7513 ft 293 kts 310°
2026-04-27 20:45 38.56600 -26.81004 7086 ft 289 kts 310°
2026-04-27 20:45 38.57984 -26.82862 6651 ft 287 kts 310°
2026-04-27 20:46 38.59355 -26.84709 6202 ft 285 kts 309°
2026-04-27 20:46 38.60718 -26.86542 5745 ft 283 kts 309°
2026-04-27 20:46 38.62071 -26.88365 5334 ft 281 kts 309°
2026-04-27 20:46 38.63408 -26.90164 4966 ft 277 kts 309°
2026-04-27 20:47 38.64711 -26.91922 4592 ft 275 kts 309°
2026-04-27 20:47 38.66025 -26.93695 4207 ft 272 kts 309°
2026-04-27 20:47 38.67327 -26.95451 3829 ft 271 kts 309°
2026-04-27 20:47 38.68679 -26.97134 3459 ft 272 kts 318°
2026-04-27 20:48 38.70185 -26.98507 3072 ft 255 kts 322°
2026-04-27 20:48 38.71136 -26.99331 2820 ft 245 kts 322°
2026-04-27 20:48 38.72958 -27.00884 2319 ft 230 kts 322°
2026-04-27 20:48 38.74278 -27.01979 1973 ft 220 kts 323°
2026-04-27 20:49 38.75517 -27.03004 1815 ft 203 kts 323°
2026-04-27 20:49 38.76669 -27.03950 1749 ft 192 kts 323°
2026-04-27 20:49 38.77773 -27.04853 1737 ft 184 kts 323°
2026-04-27 20:49 38.78853 -27.05717 1721 ft 179 kts 323°
2026-04-27 20:50 38.79857 -27.06499 1702 ft 164 kts 323°
2026-04-27 20:50 38.80815 -27.07235 1692 ft 158 kts 323°
2026-04-27 20:50 38.81717 -27.07941 1650 ft 146 kts 317°
2026-04-27 20:50 38.82235 -27.08962 1490 ft 130 kts 270°
2026-04-27 20:51 38.82069 -27.09985 1478 ft 113 kts 233°
2026-04-27 20:51 38.81625 -27.10796 1435 ft 111 kts 228°
2026-04-27 20:51 38.81142 -27.11588 1366 ft 111 kts 223°
2026-04-27 20:51 38.80479 -27.11937 1087 ft 111 kts 177°
2026-04-27 20:52 38.79729 -27.11872 876 ft 109 kts 178°
2026-04-27 20:52 38.78996 -27.11739 634 ft 104 kts 162°
2026-04-27 20:52 38.78365 -27.11313 405 ft 102 kts 149°
2026-04-27 20:52 38.77799 -27.10762 262 ft 104 kts 144°
2026-04-27 20:53 38.77441 -27.10383 209 ft 96 kts 145°
2026-04-27 20:53 38.76960 -27.09886 174 ft 81 kts 144°
2026-04-27 20:53 38.76515 -27.09429 175 ft 50 kts 140°
2026-04-27 20:53 38.76347 -27.09252 174 ft 42 kts 140°
2026-04-27 20:54 38.76017 -27.08910 177 ft 21 kts 144°
2026-04-27 20:54 38.75918 -27.08894 177 ft 14 kts 185°
2026-04-27 20:54 38.75824 -27.08902 175 ft 12 kts 183°
2026-04-27 20:55 38.75754 -27.08874 175 ft 10 kts 141°
2026-04-27 20:55 38.75702 -27.08839 175 ft 8 kts 191°
2026-04-27 20:55 38.75682 -27.08888 175 ft 7 kts 319°
2026-04-27 20:55 38.75695 -27.08901 175 ft 0 kts 322°